COSMOS 2251 DEB, 37491

Orbit data source: Space-Track

COSMOS 2251 DEB, 37491 is space debris in LEO originally from a launch on Wed, 16 Jun 1993 UTC launched from the Plesetsk Missile And Space Complex (PKMTR). The debris from Iridium 33, an American commercial communications satellite, has been tracked extensively since its accidental collision with the defunct Russian satellite Cosmos 2251 in 2009. This event, occurring at high speed in low Earth orbit (LEO), generated thousands of pieces of space debris, significantly increasing the risk of further collisions. The Iridium 33 debris cloud has impacted space traffic management and orbital debris mitigation strategies, making it a subject of ongoing study in space situational awareness.

Loading next visibility...
Identifier
37491, 1993-036BLU
Orbit
LEO
Country
Flag of CISCIS
Related business
Manufacturer
Unknown
Mission
Spacecraft
Bus & Motor
Unknown
Mass
Unknown
Launch date (UTC)
1993-06-16 (33 years ago)
Launch vehicle
Unknown
Launch site
Plesetsk Missile And Space Complex (PKMTR)
Object type
Payload
Rocket body
Debris
Shape & HBR
Unknown shape, 0.1 m
Radar Cross Section
Small (<0.1 m²)

Expand to show TLE details & history
Last TLE update: 12 hours ago

TLE from 12 hours ago
0 COSMOS 2251 DEB
1 37491U 93036BLU 26236.59076863  .00000649  00000-0  48408-3 0  9994
2 37491  73.9040 206.6067 0311908 152.0218 209.8073 13.75961065592511
Epoch: 2026-08-24T14:10Z
TLE epoch observation values (Epoch: 2026-08-24T14:10:42.409Z)
Latitude
-0.00002°
Longitude
21.05971°
Altitude
1,181.611 km
Speed
7.163 km/s
True Right ascension
13h 46m 25s
True Declination
0° 00' 00"
Sunlit
Object was in daylight at epoch
Visualization orbit readout
Latitude
Unknown
Longitude
Unknown
Altitude
Unknown
Speed
Unknown
Apparent Right ascension
Unknown
Apparent Declination
Unknown
Sunlit
N/A
Visualization observer readout
Local Sidereal Time
17:08:34
Azimuth
Unknown
Elevation
Unknown
Doppler factor
Unknown
Orbital elements
Apogee altitude
1,205.326 km
Perigee altitude
746.566 km
Semi-major axis
7,354.083 km
Eccentricity
0.03119
Inclination
73.904°
RAAN
206.6067°
Arg. of periapsis
152.0218°
True anomaly
208.08909°
Mean anomaly
209.8073°
Eccentric anomaly
208.94247°
Mean motion
3.44152 °/min
Orbital period
104.6 mins
BSTAR
0.00048408
Loading maneuver chart data...
Computing Atmospheric mass density...

Documentation

Showing up to 5 results
|